Flag for Brazil Weather past 2 weeks in Porto Alegre, Rio Grande do Sul, Brazil

Now
73 °F

Clear.


Feels Like: 75 °F
Forecast: N/A
Wind: 9 mph from Southeast

Location: Porto Alegre Aero-Porto


UV Index: N/A

Visibility: 10 mi


Pressure: 29.98 "Hg

Humidity: 74%

Dew point: 64 °F

Location of Porto AlegreLocation

Historic Weather in Porto Alegre

°F

Porto Alegre temperature yesterday

Maximum temperature yesterday: 75 °F (at 2:00 PM)
Minimum temperature yesterday: 54 °F (at 5:00 AM)
Average temperature yesterday: 64 °F

Past Weeks' High & Low Weather Summary

 TemperatureHumidityPressure
High90 °F (Apr 6, 3:00 PM)100% (Apr 8, 11:00 PM)30.24 "Hg (Apr 8, 11:00 PM)
Low37 °F (Apr 9, 12:00 AM)25% (Apr 9, 1:00 AM)29.56 "Hg (Apr 12, 5:00 AM)
Average72 °F77%29.99 "Hg
* Reported Apr 1 6:00 PM — Apr 16 6:00 PM, Porto Alegre, Weather by CustomWeather, © 2014

Note: Actual official high and low records may vary slightly from our data, if they occured in-between our weather recording intervals... More about our weather records

Advertising

Historic Weather Conditions — Data for Previous 24 hours

 ConditionsComfort  
Time TempWeatherWind HumidityBarometerVisibility
6:00 PM
Apr 16
79 °FClear.7 mph51%29.95 "Hg10 mi
5:00 PM81 °FSunny.7 mph48%29.95 "Hg10 mi
4:00 PM82 °FPassing clouds.7 mph45%29.95 "HgN/A
3:00 PM82 °FSunny.10 mph42%29.98 "Hg10 mi
2:00 PM81 °FSunny.5 mph51%29.98 "Hg10 mi
1:00 PM79 °FSunny.5 mph51%30.01 "Hg10 mi
12:00 PM77 °FSunny.6 mph54%30.04 "Hg10 mi
11:00 AM75 °FSunny.5 mph61%30.07 "Hg10 mi
10:00 AM73 °FSunny.2 mph65%30.07 "Hg10 mi
9:00 AM70 °FSunny.3 mph73%30.07 "Hg10 mi
8:00 AM63 °FFog.2 mph88%30.04 "Hg3 mi
7:00 AM59 °FClear.3 mph94%30.04 "Hg5 mi
6:00 AM57 °FSunny.2 mph100%30.01 "Hg10 mi
5:00 AM59 °FClear.2 mph94%30.01 "Hg10 mi
4:00 AM59 °FClear.2 mph94%30.01 "Hg10 mi
3:00 AM61 °FClear.2 mph94%30.01 "Hg10 mi
2:00 AM61 °FClear.3 mph94%30.01 "Hg10 mi
1:00 AM63 °FClear.5 mph88%30.04 "Hg10 mi
12:00 AM63 °FClear.5 mph88%30.04 "Hg10 mi
11:00 PM
Apr 15
64 °FClear.5 mph88%30.04 "Hg10 mi
10:00 PM64 °FClear.8 mph88%30.04 "Hg10 mi
8:00 PM66 °FClear.10 mph78%30.04 "Hg10 mi
7:00 PM68 °FClear.12 mph73%30.04 "Hg10 mi
Weather by CustomWeather, © 2014

See weather overview